This is the latest recevied weather packets stored in our database for station/object W2GRK-15. If no packets are shown the sender has not sent any weather packets the latest 10 day(s).
| Time | Temp. | Humidity | Pressure | Rain* | Wind** | Luminosity | Snow |
|---|---|---|---|---|---|---|---|
| 1777420982 | 13.89° C | 59% | 1018.9 hPa | 0 mm | - | 0 W/m² | - |
| 1777420588 | 13.89° C | 59% | 1018.8 hPa | 0 mm | - | 0 W/m² | - |
| 1777420411 | 13.89° C | 59% | 1019 hPa | 0 mm | - | 1 W/m² | - |
| 1777420282 | 13.89° C | 59% | 1018.7 hPa | 0 mm | - | 1 W/m² | - |
| 1777419799 | 14.44° C | 61% | 1018.7 hPa | 0 mm | - | 2 W/m² | - |
| 1777419445 | 14.44° C | 57% | 1018.8 hPa | 0 mm | - | 3 W/m² | - |
| 1777419090 | 14.44° C | 58% | 1018.7 hPa | 0 mm | - | 11 W/m² | - |
| 1777418961 | 14.44° C | 56% | 1018.6 hPa | 0 mm | - | 12 W/m² | - |
| 1777418848 | 14.44° C | 56% | 1018.8 hPa | 0 mm | - | 13 W/m² | - |
| 1777418498 | 14.44° C | 56% | 1018.8 hPa | 0 mm | - | 10 W/m² | - |
| 1777418236 | 14.44° C | 55% | 1018.9 hPa | 0 mm | - | 8 W/m² | - |
| 1777418188 | 14.44° C | 54% | 1019.1 hPa | 0 mm | - | 7 W/m² | - |
| 1777418031 | 14.44° C | 54% | 1019.2 hPa | 0 mm | - | 5 W/m² | - |
| 1777417946 | 14.44° C | 55% | 1019.1 hPa | 0 mm | - | 5 W/m² | - |
| 1777417789 | 14.44° C | 54% | 1019.1 hPa | 0 mm | - | 6 W/m² | - |
| 1777416823 | 14.44° C | 53% | 1019.2 hPa | 0 mm | - | 26 W/m² | - |
| 1777416690 | 14.44° C | 54% | 1019.2 hPa | 0 mm | - | 30 W/m² | - |
| 1777416404 | 14.44° C | 53% | 1019.2 hPa | 0 mm | - | 36 W/m² | - |
| 1777416029 | 14.44° C | 53% | 1019.4 hPa | 0 mm | - | 42 W/m² | - |
| 1777415723 | 14.44° C | 54% | 1019.4 hPa | 0 mm | - | 41 W/m² | - |
| 1777415659 | 14.44° C | 54% | 1019.3 hPa | 0 mm | - | 40 W/m² | - |
| 1777415546 | 14.44° C | 55% | 1019.4 hPa | 0 mm | - | 38 W/m² | - |
| 1777415417 | 14.44° C | 54% | 1019.2 hPa | 0 mm | - | 38 W/m² | - |
| 1777415389 | 14.44° C | 53% | 1019.2 hPa | 0 mm | - | 41 W/m² | - |
| 1777415062 | 14.44° C | 52% | 1019.2 hPa | 0 mm | - | 54 W/m² | - |
* Rain latest hour (hover to see other rain measurements)
** Current wind speed in m/s (hover to see current wind gust speed)